STARLINK-11724

Satellite information

Favourite Embed

Satellite Type and Status

PAYLOADIN ORBIT

Key statistics

Satellite STARLINK-11724 at a glance.

Uptime

203

Days in orbit

Revolutions

≈ 15.7

Per day

Orbit

LEO

Low Earth Orbit

Inclination

43.0

Latest

Satellite identification and parameters

Extended collection of information and parameters for STARLINK-11724.

Object identification

Identified? True

Debris? False

Object name: STARLINK-11724

International designator: 2025-111B

Object number (NORAD): 64124

Object ID (CCSDS): 64124

Country: UNITED STATES OF AMERICA (US)

Current information (Y/N): Y

RCS size: LARGE

Orbital parameters

Period: 91.672 minutes

Inclination: 42.9997 deg

SMA: 6734.68 km

Apoapsis: 357.122 km

Periapsis: 355.968 km

RAAN: 141.3557 deg

Eccentricy: 0.00008571

Argument of periapsis: 37.3165 deg

Mean anomaly: 322.7762 deg

Mean motion: 15.70823178 rev/day

Mean motion (dot): 0.00269472 rev/day2

B* drag term: 0.0020375982 1/REarth

Two-line elements (TLE)

Creation date: Dec. 12, 2025, 10:14 a.m.

Reference frame: TEME

Reference center: EARTH

Epoch: Dec. 12, 2025, 3:43 a.m. UTC

TLE line 0: 0 STARLINK-11724

TLE line 1: 1 64124U 25111B 25346.15548274 .00269472 00000-0 20376-2 0 9993

TLE line 2: 2 64124 42.9997 141.3557 0000857 37.3165 322.7762 15.70823178 32871

Live tracking on map

Real-time ground track for satellite STARLINK-11724.

In-orbit conjunctions

There are no conjunctions computed for STARLINK-11724, at the moment. Check back to stay up to date, as we update our databases every day.

Go to all conjunctions

Associated space launch

A batch of 23 satellites for the Starlink mega-constellation - SpaceX's project for space-based Internet communication system.

STARLINK-11724 was lifted into orbit during the mission ‘Falcon 9 Block 5 | Starlink Group 12-22’, on board a Falcon 9 space rocket.

The launch took place on May 24, 2025, 5:19 p.m. from Space Launch Complex 40.

For more information about the launch, click the button.

Launch to space Falcon 9 Block 5 | Starlink Group 12-22
Falcon 9 Block 5 | Starlink Group 12-22

Agency: SpaceX

Status: Launch Successful

Launch date: May 24, 2025, 5:19 p.m. UTC

Rocket: Falcon 9

Launch pad: Space Launch Complex 40

Location: Cape Canaveral SFS, FL, USA

...

Latest news about this satellite

News about space launch
Launch Roundup: SpaceX to start new Starlink shell; China, Russia to launch unknown payloads

This week, SpaceX will begin building a new shell for its Starlink constellation, launching from… The post Launch Roundup: SpaceX to start new Starlink shell; China, Russia to launch unknown payloads appeared first on NASASpaceFlight.com.


Newsletter sign-up

Weekly statistics, charts and insights to help you stay on top of the space industry.